| time (UTC) | temp C | wind direction | speed KPH | gust KPH | rain 1hr cm | rain 24hr cm | rain mn cm | humidity % | barometer mb |
| 20260510220923 | 35 | 204 | 3.2 | 6.4 | 0.00 | 0.00 | 0.00 | 6 | 1016.8 |
| 20260510220022 | 34 | 256 | 0.0 | 4.8 | 0.00 | 0.00 | 0.00 | 5 | 1017.0 |
| 20260510213221 | 34 | 294 | 3.2 | 6.4 | 0.00 | 0.00 | 0.00 | 6 | 1017.6 |
| 20260510212223 | 34 | 209 | 3.2 | 8.0 | 0.00 | 0.00 | 0.00 | 6 | 1017.7 |
| 20260510211238 | 33 | 247 | 4.8 | 6.4 | 0.00 | 0.00 | 0.00 | 6 | 1017.8 |
| 20260510210322 | 35 | 288 | 6.4 | 11.3 | 0.00 | 0.00 | 0.00 | 6 | 1018.1 |
| 20260510205325 | 34 | 6 | 1.6 | 3.2 | 0.00 | 0.00 | 0.00 | 6 | 1018.2 |
| 20260510204323 | 33 | 11 | 3.2 | 8.0 | 0.00 | 0.00 | 0.00 | 7 | 1018.2 |
| 20260510202422 | 33 | 194 | 1.6 | 12.9 | 0.00 | 0.00 | 0.00 | 6 | 1018.5 |
| 20260510201522 | 33 | 286 | 3.2 | 4.8 | 0.00 | 0.00 | 0.00 | 7 | 1018.6 |
| 20260510200522 | 32 | 137 | 4.8 | 8.0 | 0.00 | 0.00 | 0.00 | 7 | 1018.8 |
| 20260510195522 | 32 | 212 | 1.6 | 6.4 | 0.00 | 0.00 | 0.00 | 8 | 1018.8 |
| 20260510194522 | 32 | 282 | 9.7 | 12.9 | 0.00 | 0.00 | 0.00 | 7 | 1018.9 |
| 20260510193523 | 32 | 202 | 4.8 | 9.7 | 0.00 | 0.00 | 0.00 | 7 | 1019.1 |
| 20260510192523 | 32 | 212 | 8.0 | 12.9 | 0.00 | 0.00 | 0.00 | 8 | 1019.1 |
| 20260510191622 | 32 | 202 | 1.6 | 6.4 | 0.00 | 0.00 | 0.00 | 7 | 1019.1 |
| 20260510190622 | 32 | 236 | 4.8 | 12.9 | 0.00 | 0.00 | 0.00 | 6 | 1019.2 |
| 20260510185622 | 32 | 203 | 3.2 | 9.7 | 0.00 | 0.00 | 0.00 | 7 | 1019.4 |
| 20260510182723 | 31 | 204 | 8.0 | 16.1 | 0.00 | 0.00 | 0.00 | 8 | 1019.9 |
| 20260510181737 | 31 | 106 | 3.2 | 6.4 | 0.00 | 0.00 | 0.00 | 8 | 1020.1 |
| 20260510180822 | 31 | 186 | 4.8 | 11.3 | 0.00 | 0.00 | 0.00 | 7 | 1020.1 |
| 20260510175839 | 30 | 101 | 6.4 | 11.3 | 0.00 | 0.00 | 0.00 | 9 | 1020.2 |
| 20260510173823 | 31 | 89 | 0.0 | 3.2 | 0.00 | 0.00 | 0.00 | 10 | 1020.4 |
| 20260510171838 | 29 | 202 | 0.0 | 4.8 | 0.00 | 0.00 | 0.00 | 11 | 1020.4 |
| 20260510170922 | 28 | 239 | 1.6 | 4.8 | 0.00 | 0.00 | 0.00 | 12 | 1020.6 |
| 20260510165925 | 28 | 179 | 3.2 | 6.4 | 0.00 | 0.00 | 0.00 | 12 | 1020.6 |
| 20260510165022 | 28 | 128 | 0.0 | 3.2 | 0.00 | 0.00 | 0.00 | 13 | 1020.7 |
| 20260510164024 | 27 | 182 | 3.2 | 6.4 | 0.00 | 0.00 | 0.00 | 12 | 1020.7 |
| 20260510163039 | 27 | 161 | 4.8 | 8.0 | 0.00 | 0.00 | 0.00 | 12 | 1020.4 |
| 20260510162039 | 26 | 202 | 1.6 | 3.2 | 0.00 | 0.00 | 0.00 | 13 | 1020.6 |
| 20260510161121 | 26 | 149 | 4.8 | 9.7 | 0.00 | 0.00 | 0.00 | 13 | 1020.7 |
| 20260510160137 | 26 | 157 | 1.6 | 3.2 | 0.00 | 0.00 | 0.00 | 15 | 1020.7 |
| 20260510155222 | 26 | 159 | 6.4 | 8.0 | 0.00 | 0.00 | 0.00 | 14 | 1020.7 |
| 20260510153222 | 25 | 240 | 0.0 | 3.2 | 0.00 | 0.00 | 0.00 | 16 | 1020.7 |
| 20260510152237 | 25 | 237 | 0.0 | 3.2 | 0.00 | 0.00 | 0.00 | 17 | 1020.8 |
| 20260510152122 | 25 | 247 | 0.0 | 1.6 | 0.00 | 0.00 | 0.00 | 17 | 1020.7 |
| 20260510150222 | 23 | 80 | 0.0 | 3.2 | 0.00 | 0.00 | 0.00 | 21 | 1020.8 |
| 20260510145222 | 23 | 337 | 0.0 | 0.0 | 0.00 | 0.00 | 0.00 | 22 | 1020.9 |
| 20260510143221 | 21 | 337 | 0.0 | 0.0 | 0.00 | 0.00 | 0.00 | 25 | 1020.7 |
| 20260510142239 | 20 | 315 | 0.0 | 0.0 | 0.00 | 0.00 | 0.00 | 29 | 1020.8 |
| 20260510141221 | 19 | 315 | 0.0 | 0.0 | 0.00 | 0.00 | 0.00 | 28 | 1020.7 |
| 20260510135222 | 17 | 45 | 0.0 | 0.0 | 0.00 | 0.00 | 0.00 | 30 | 1020.7 |
| 20260510135137 | 17 | 45 | 0.0 | 0.0 | 0.00 | 0.00 | 0.00 | 30 | 1020.6 |
| 20260510134137 | 17 | 45 | 0.0 | 1.6 | 0.00 | 0.00 | 0.00 | 32 | 1020.6 |
| 20260510133121 | 16 | 45 | 0.0 | 0.0 | 0.00 | 0.00 | 0.00 | 32 | 1020.4 |
| 20260510132221 | 16 | 45 | 0.0 | 0.0 | 0.00 | 0.00 | 0.00 | 31 | 1020.2 |
| 20260510131238 | 15 | 45 | 0.0 | 0.0 | 0.00 | 0.00 | 0.00 | 30 | 1020.1 |
| 20260510130241 | 15 | 338 | 1.6 | 3.2 | 0.00 | 0.00 | 0.00 | 31 | 1019.9 |
| 20260510125223 | 14 | 360 | 0.0 | 1.6 | 0.00 | 0.00 | 0.00 | 31 | 1019.9 |
| 20260510124238 | 14 | 180 | 0.0 | 0.0 | 0.00 | 0.00 | 0.00 | 32 | 1019.6 |
| 20260510123240 | 15 | 315 | 1.6 | 3.2 | 0.00 | 0.00 | 0.00 | 30 | 1019.6 |
| 20260510122337 | 15 | 90 | 3.2 | 4.8 | 0.00 | 0.00 | 0.00 | 29 | 1019.6 |
| 20260510120421 | 15 | 300 | 3.2 | 4.8 | 0.00 | 0.00 | 0.00 | 33 | 1019.1 |
| 20260510115437 | 13 | 315 | 1.6 | 3.2 | 0.00 | 0.00 | 0.00 | 38 | 1018.9 |
| 20260510115322 | 13 | 315 | 0.0 | 1.6 | 0.00 | 0.00 | 0.00 | 38 | 1018.9 |
| 20260510114338 | 15 | 22 | 0.0 | 0.0 | 0.00 | 0.00 | 0.00 | 31 | 1018.8 |
| 20260510112422 | 15 | 337 | 0.0 | 0.0 | 0.00 | 0.00 | 0.00 | 35 | 1018.5 |
| 20260510110439 | 15 | 337 | 3.2 | 3.2 | 0.00 | 0.00 | 0.00 | 37 | 1018.4 |
| 20260510105521 | 15 | 22 | 0.0 | 0.0 | 0.00 | 0.00 | 0.00 | 34 | 1018.3 |
| 20260510104539 | 15 | 22 | 3.2 | 3.2 | 0.00 | 0.00 | 0.00 | 35 | 1018.2 |
| 20260510103537 | 15 | 22 | 0.0 | 0.0 | 0.00 | 0.00 | 0.00 | 34 | 1018.0 |
| 20260510102620 | 16 | 22 | 0.0 | 0.0 | 0.00 | 0.00 | 0.00 | 31 | 1017.9 |
| 20260510101621 | 16 | 22 | 0.0 | 0.0 | 0.00 | 0.00 | 0.00 | 31 | 1017.8 |
| 20260510100622 | 16 | 22 | 0.0 | 0.0 | 0.00 | 0.00 | 0.00 | 31 | 1017.6 |
| 20260510095637 | 16 | 45 | 0.0 | 0.0 | 0.00 | 0.00 | 0.00 | 30 | 1017.6 |
| 20260510095522 | 16 | 45 | 0.0 | 0.0 | 0.00 | 0.00 | 0.00 | 30 | 1017.6 |
| 20260510094521 | 16 | 67 | 0.0 | 0.0 | 0.00 | 0.00 | 0.00 | 31 | 1017.4 |
| 20260510093520 | 16 | 360 | 0.0 | 0.0 | 0.00 | 0.00 | 0.00 | 32 | 1017.2 |
| 20260510092521 | 17 | 360 | 0.0 | 0.0 | 0.00 | 0.00 | 0.00 | 28 | 1017.1 |
| 20260510091523 | 17 | 67 | 3.2 | 4.8 | 0.00 | 0.00 | 0.00 | 26 | 1017.0 |
| 20260510091439 | 17 | 47 | 3.2 | 4.8 | 0.00 | 0.00 | 0.00 | 27 | 1017.0 |
| 20260510090522 | 17 | 45 | 0.0 | 0.0 | 0.00 | 0.00 | 0.00 | 27 | 1016.9 |
| 20260510084522 | 18 | 67 | 0.0 | 3.2 | 0.00 | 0.00 | 0.00 | 26 | 1016.8 |
| 20260510083522 | 18 | 67 | 0.0 | 1.6 | 0.00 | 0.00 | 0.00 | 27 | 1016.8 |
| 20260510081522 | 18 | 292 | 0.0 | 0.0 | 0.00 | 0.00 | 0.00 | 28 | 1016.7 |
| 20260510075539 | 19 | 292 | 0.0 | 0.0 | 0.00 | 0.00 | 0.00 | 26 | 1016.7 |
| 20260510074522 | 19 | 45 | 0.0 | 3.2 | 0.00 | 0.00 | 0.00 | 25 | 1016.6 |
| 20260510073521 | 20 | 337 | 0.0 | 1.6 | 0.00 | 0.00 | 0.00 | 24 | 1016.5 |
| 20260510072538 | 21 | 22 | 0.0 | 0.0 | 0.00 | 0.00 | 0.00 | 21 | 1016.3 |
| 20260510071622 | 21 | 112 | 0.0 | 0.0 | 0.00 | 0.00 | 0.00 | 21 | 1016.3 |
| 20260510070622 | 21 | 337 | 0.0 | 0.0 | 0.00 | 0.00 | 0.00 | 22 | 1016.3 |
| 20260510064737 | 21 | 337 | 0.0 | 0.0 | 0.00 | 0.00 | 0.00 | 26 | 1016.0 |
| 20260510063721 | 21 | 337 | 0.0 | 1.6 | 0.00 | 0.00 | 0.00 | 22 | 1015.8 |
| 20260510062736 | 20 | 360 | 4.8 | 6.4 | 0.00 | 0.00 | 0.00 | 27 | 1015.7 |
| 20260510061820 | 21 | 337 | 0.0 | 1.6 | 0.00 | 0.00 | 0.00 | 25 | 1015.6 |
| 20260510060820 | 21 | 360 | 0.0 | 0.0 | 0.00 | 0.00 | 0.00 | 25 | 1015.3 |
| 20260510055830 | 22 | 90 | 0.0 | 0.0 | 0.00 | 0.00 | 0.00 | 21 | 1015.3 |
| 20260510054848 | 23 | 90 | 0.0 | 0.0 | 0.00 | 0.00 | 0.00 | 21 | 1015.1 |
| 20260510053946 | 23 | 180 | 0.0 | 0.0 | 0.00 | 0.00 | 0.00 | 19 | 1015.1 |
| 20260510053033 | 24 | 93 | 0.0 | 0.0 | 0.00 | 0.00 | 0.00 | 19 | 1014.9 |
| 20260510051130 | 24 | 90 | 3.2 | 4.8 | 0.00 | 0.00 | 0.00 | 19 | 1014.8 |
| 20260510050133 | 24 | 202 | 0.0 | 1.6 | 0.00 | 0.00 | 0.00 | 19 | 1014.5 |
| 20260510044131 | 25 | 202 | 0.0 | 0.0 | 0.00 | 0.00 | 0.00 | 18 | 1014.4 |
| 20260510044031 | 25 | 202 | 0.0 | 1.6 | 0.00 | 0.00 | 0.00 | 19 | 1014.5 |
| 20260510043130 | 26 | 337 | 1.6 | 1.6 | 0.00 | 0.00 | 0.00 | 18 | 1014.3 |
| 20260510042148 | 26 | 225 | 0.0 | 3.2 | 0.00 | 0.00 | 0.00 | 18 | 1014.3 |
| 20260510041230 | 26 | 112 | 0.0 | 1.6 | 0.00 | 0.00 | 0.00 | 17 | 1014.1 |
| 20260510040230 | 26 | 292 | 0.0 | 1.6 | 0.00 | 0.00 | 0.00 | 16 | 1013.7 |
| 20260510035232 | 26 | 292 | 3.2 | 4.8 | 0.00 | 0.00 | 0.00 | 18 | 1013.7 |
| 20260510034331 | 27 | 247 | 0.0 | 0.0 | 0.00 | 0.00 | 0.00 | 15 | 1013.5 |
| 20260510033345 | 27 | 247 | 0.0 | 3.2 | 0.00 | 0.00 | 0.00 | 17 | 1013.3 |
| 20260510032431 | 28 | 180 | 3.2 | 4.8 | 0.00 | 0.00 | 0.00 | 16 | 1013.1 |
| 20260510031530 | 28 | 157 | 1.6 | 3.2 | 0.00 | 0.00 | 0.00 | 15 | 1012.9 |
| 20260510025530 | 29 | 315 | 4.8 | 6.4 | 0.00 | 0.00 | 0.00 | 14 | 1012.4 |
| 20260510024532 | 30 | 315 | 0.0 | 0.0 | 0.00 | 0.00 | 0.00 | 14 | 1012.4 |
| 20260510023629 | 30 | 337 | 1.6 | 3.2 | 0.00 | 0.00 | 0.00 | 13 | 1012.2 |
| 20260510022633 | 31 | 344 | 4.8 | 6.4 | 0.00 | 0.00 | 0.00 | 12 | 1012.0 |
| 20260510020630 | 32 | 336 | 4.8 | 9.7 | 0.00 | 0.00 | 0.00 | 12 | 1012.0 |
| 20260510020530 | 32 | 334 | 4.8 | 8.0 | 0.00 | 0.00 | 0.00 | 12 | 1012.0 |
| 20260510015532 | 32 | 347 | 4.8 | 9.7 | 0.00 | 0.00 | 0.00 | 11 | 1011.9 |
| 20260510014547 | 32 | 347 | 8.0 | 12.9 | 0.00 | 0.00 | 0.00 | 11 | 1011.8 |
| 20260510013531 | 32 | 319 | 4.8 | 11.3 | 0.00 | 0.00 | 0.00 | 12 | 1011.7 |
| 20260510012548 | 32 | 17 | 3.2 | 6.4 | 0.00 | 0.00 | 0.00 | 12 | 1011.7 |
| 20260510012429 | 32 | 360 | 3.2 | 6.4 | 0.00 | 0.00 | 0.00 | 11 | 1011.8 |
| 20260510010446 | 33 | 356 | 6.4 | 14.5 | 0.00 | 0.00 | 0.00 | 11 | 1011.7 |
| 20260510004546 | 33 | 359 | 9.7 | 14.5 | 0.00 | 0.00 | 0.00 | 10 | 1011.4 |
| 20260510003530 | 35 | 349 | 6.4 | 11.3 | 0.00 | 0.00 | 0.00 | 10 | 1011.6 |
| 20260510002531 | 34 | 353 | 1.6 | 4.8 | 0.00 | 0.00 | 0.00 | 10 | 1011.6 |
| 20260510001630 | 33 | 22 | 8.0 | 14.5 | 0.00 | 0.00 | 0.00 | 11 | 1011.7 |
| 20260510000649 | 33 | 26 | 6.4 | 11.3 | 0.00 | 0.00 | 0.00 | 11 | 1011.6 |
| 20260509231930 | 35 | 4 | 4.8 | 11.3 | 0.00 | 0.00 | 0.00 | 10 | 1011.7 |
| 20260509231847 | 35 | 11 | 11.3 | 19.3 | 0.00 | 0.00 | 0.00 | 9 | 1011.7 |
| 20260509230846 | 34 | 359 | 9.7 | 17.7 | 0.00 | 0.00 | 0.00 | 9 | 1011.7 |
| 20260509225830 | 34 | 284 | 6.4 | 9.7 | 0.00 | 0.00 | 0.00 | 10 | 1011.9 |
| 20260509224831 | 34 | 207 | 6.4 | 11.3 | 0.00 | 0.00 | 0.00 | 9 | 1012.1 |
| 20260509223846 | 35 | 315 | 8.0 | 11.3 | 0.00 | 0.00 | 0.00 | 10 | 1012.0 |
| 20260509222931 | 35 | 354 | 8.0 | 17.7 | 0.00 | 0.00 | 0.00 | 9 | 1012.2 |